LPPTLPFR

Guest
Details From LPPT - Lisboa
To LPFR - Faro
Flight Number -
Tags decoded
Created
Modified
Stats Distance 121 nm / 224 km
Max Altitude 0 ft / 0 m
Waypoints 4
Social Downloads 16
Likes 0
Share

Download

Looking for another format? Having issues loading an existing format? Contact us
Advertisement - Login to hide

Notes

Requested: LPPT TROIA A5 ODEMI LPFR

Route

LPPT TROIA ODEMI LPFR

ID Type Via Altitude (ft/m) Position (lat/lon) Dist (leg/tot) Name
O LPPT APT - 0 / 0 38.77856 / -9.13515 - / 0 nm Lisboa
TROIA FIX - 0 / 0 38.07333 / -8.87917 44 / 44 nm
ODEMI FIX - 0 / 0 37.49750 / -8.38389 41 / 85 nm
O LPFR APT - 0 / 0 37.01534 / -7.97233 35 / 120 nm Faro

Altitude Profile

Advertisement - Login to hide

LPPT

Details ICAO LPPT (LIS)
Name Lisboa Humberto Delgado
Region Portugal
Timezone Europe/Lisbon (UTC+1.0)
Stats Elevation 374 ft / 114 m (AMSL)
Location 38.778800° -9.135190°
Runways 2
Magnetic Variation 1.813° W

METAR

LPPT 192100Z 33011KT CAVOK 19/10 Q1016

Decode

TAF

TAF LPPT 191700Z 1918/2024 33012KT CAVOK BECMG 2003/2006 02007KT BECMG 2014/2017 34013KT

Decode

Departure Runways

ID Width Length Bearing (true/mag) Surface Threshold Overrun Markings Lighting
03 148 ft / 45 m 12,505 ft / 3,812 m 22.65° / 24.46° ASPHALT 302 ft / 92 m 0 ft / 0 m PREC-APP CENTERLINE EDGE THRESHOLD ALSF-II TDZ REIL-OMNI
17 148 ft / 45 m 7,612 ft / 2,320 m 168.14° / 169.95° ASPHALT 0 ft / 0 m 0 ft / 0 m PREC-APP CENTERLINE EDGE THRESHOLD REIL-OMNI
21 148 ft / 45 m 12,505 ft / 3,812 m 202.66° / 204.47° ASPHALT 1,965 ft / 599 m 0 ft / 0 m PREC-APP CENTERLINE EDGE THRESHOLD ALSF-II TDZ REIL-OMNI
35 148 ft / 45 m 7,612 ft / 2,320 m 348.14° / 349.96° ASPHALT 194 ft / 59 m 299 ft / 91 m PREC-APP CENTERLINE EDGE THRESHOLD ALSF-I REIL-OMNI

LPFR

Details ICAO LPFR (FAO)
Name Faro
Region Portugal
Timezone Europe/Lisbon (UTC+1.0)
Stats Elevation 22 ft / 7 m (AMSL)
Location 37.015300° -7.972320°
Runways 1
Magnetic Variation 1.409° W

METAR

LPFR 192100Z 28003KT CAVOK 23/15 Q1014

Decode

TAF

TAF LPFR 191700Z 1918/2018 25008KT CAVOK BECMG 1918/1921 31007KT BECMG 1923/2002 VRB02KT BECMG 2008/2011 09012KT BECMG 2014/2017 19008KT

Decode

Destination Runways

ID Width Length Bearing (true/mag) Surface Threshold Overrun Markings Lighting
10 148 ft / 45 m 8,179 ft / 2,493 m 100.08° / 101.48° ASPHALT 148 ft / 45 m 0 ft / 0 m PREC-APP EDGE THRESHOLD REIL-OMNI
28 148 ft / 45 m 8,179 ft / 2,493 m 280.09° / 281.50° ASPHALT 144 ft / 44 m 0 ft / 0 m PREC-APP EDGE THRESHOLD REIL-OMNI

Approach Navaids

Runway Type Ident Frequency Range Bearing (true/mag) Slope Elevation
28 LOC-ILS IIF 109.50 MHz 18 nm / 33 km 280.08° / 281.49 ° - 22 ft / 7 m (AMSL)
28 GS IIF 109.50 MHz 10 nm / 19 km 280.17° / 281.58 ° 3.00° 24 ft / 7 m (AMSL)
28 DME IIF 109.50 MHz 18 nm / 33 km - - 24 ft / 7 m (AMSL)

Popular Alternatives